Time,TemperatureF,DewpointF,PressureIn,WindDirection,WindDirectionDegrees,WindSpeedMPH,WindSpeedGustMPH,Humidity,HourlyPrecipIn,Conditions,Clouds,dailyrainin,SoftwareType,DateUTC
2013-06-13 00:05:00,84.7,28.5,29.12,WNW,300,0.0,27.1,13,1.81,,,0.00,VWS V13.01,2013-06-13 04:05:00,
2013-06-13 00:10:00,84.7,28.5,29.12,SW,214,0.0,27.1,13,1.81,,,0.00,VWS V13.01,2013-06-13 04:10:00,
2013-06-13 00:15:00,84.6,28.4,29.12,West,276,8.3,27.1,13,1.81,,,0.00,VWS V13.01,2013-06-13 04:15:00,
2013-06-13 00:20:00,84.7,28.5,29.12,WNW,300,5.8,27.1,13,1.81,,,0.00,VWS V13.01,2013-06-13 04:20:00,
2013-06-13 00:25:00,84.7,28.5,29.12,West,279,5.8,27.1,13,1.81,,,0.00,VWS V13.01,2013-06-13 04:25:00,
2013-06-13 00:31:00,84.6,28.4,29.12,SW,236,8.7,27.1,13,1.81,,,0.00,VWS V13.01,2013-06-13 04:31:00,
2013-06-13 00:36:00,84.6,28.4,29.12,West,273,2.7,27.1,13,1.81,,,0.00,VWS V13.01,2013-06-13 04:36:00,
2013-06-13 00:41:00,84.6,28.4,29.12,WNW,303,3.1,27.1,13,1.81,,,0.00,VWS V13.01,2013-06-13 04:41:00,
2013-06-13 00:46:00,84.4,28.2,29.12,NW,316,6.3,27.1,13,1.81,,,0.00,VWS V13.01,2013-06-13 04:46:00,
2013-06-13 00:51:00,84.4,33.3,29.12,West,275,3.6,27.1,16,1.81,,,0.00,VWS V13.01,2013-06-13 04:51:00,
2013-06-13 00:56:00,84.2,33.2,29.12,WSW,248,0.0,27.1,16,1.81,,,0.00,VWS V13.01,2013-06-13 04:56:00,
2013-06-13 01:01:00,84.0,33.0,29.12,NW,310,2.7,27.1,16,1.81,,,0.00,VWS V13.01,2013-06-13 05:01:00,
2013-06-13 01:06:00,84.0,33.0,29.12,WNW,289,5.4,27.1,16,1.81,,,0.00,VWS V13.01,2013-06-13 05:06:00,
2013-06-13 01:11:00,84.0,33.0,29.12,NNE,16,0.0,27.1,16,1.81,,,0.00,VWS V13.01,2013-06-13 05:11:00,
2013-06-13 01:16:00,84.0,33.0,29.12,NW,315,4.0,27.1,16,1.81,,,0.00,VWS V13.01,2013-06-13 05:16:00,
2013-06-13 01:21:00,84.0,33.0,29.12,WSW,251,4.9,27.1,16,1.81,,,0.00,VWS V13.01,2013-06-13 05:21:00,
2013-06-13 01:26:00,83.8,37.2,29.12,WSW,248,5.4,27.1,19,1.81,,,0.00,VWS V13.01,2013-06-13 05:26:00,
2013-06-13 01:31:00,83.7,37.1,29.12,North,353,0.0,27.1,19,1.81,,,0.00,VWS V13.01,2013-06-13 05:31:00,
2013-06-13 01:36:00,83.8,37.2,29.12,SSW,210,5.8,27.1,19,1.81,,,0.00,VWS V13.01,2013-06-13 05:36:00,
2013-06-13 01:41:00,83.8,37.2,29.12,WSW,237,8.1,27.1,19,1.81,,,0.00,VWS V13.01,2013-06-13 05:41:00,
2013-06-13 01:46:00,84.0,37.4,29.12,West,265,8.3,27.1,19,1.81,,,0.00,VWS V13.01,2013-06-13 05:46:00,
2013-06-13 01:51:00,84.0,37.4,29.12,South,191,3.6,27.1,19,1.81,,,0.00,VWS V13.01,2013-06-13 05:51:00,
2013-06-13 01:56:00,84.0,37.4,29.12,SW,229,8.7,27.1,19,1.81,,,0.00,VWS V13.01,2013-06-13 05:56:00,
2013-06-13 02:01:00,84.0,37.4,29.12,NNW,335,3.6,27.1,19,1.81,,,0.00,VWS V13.01,2013-06-13 06:01:00,
2013-06-13 02:06:00,84.0,37.4,29.12,WSW,258,4.0,27.1,19,1.81,,,0.00,VWS V13.01,2013-06-13 06:06:00,
2013-06-13 02:11:00,84.0,37.4,29.09,NW,306,4.0,27.1,19,1.81,,,0.00,VWS V13.01,2013-06-13 06:11:00,
2013-06-13 02:16:00,84.0,37.4,29.09,WSW,247,14.5,27.1,19,1.81,,,0.00,VWS V13.01,2013-06-13 06:16:00,
2013-06-13 02:21:00,84.0,37.4,29.09,WSW,251,8.3,27.1,19,1.81,,,0.00,VWS V13.01,2013-06-13 06:21:00,
2013-06-13 02:27:00,83.8,37.2,29.09,WNW,297,3.6,27.1,19,1.81,,,0.00,VWS V13.01,2013-06-13 06:27:00,
2013-06-13 02:32:00,83.7,37.1,29.09,SW,215,5.4,27.1,19,1.81,,,0.00,VWS V13.01,2013-06-13 06:32:00,
2013-06-13 02:37:00,83.7,37.1,29.09,SW,227,6.3,27.1,19,1.81,,,0.00,VWS V13.01,2013-06-13 06:37:00,
2013-06-13 02:42:00,83.5,36.9,29.09,West,264,8.3,27.1,19,1.81,,,0.00,VWS V13.01,2013-06-13 06:42:00,
2013-06-13 02:47:00,83.7,37.1,29.09,SW,224,4.9,27.1,19,1.81,,,0.00,VWS V13.01,2013-06-13 06:47:00,
2013-06-13 02:52:00,83.5,36.9,29.09,WNW,284,10.5,27.1,19,1.81,,,0.00,VWS V13.01,2013-06-13 06:52:00,
2013-06-13 02:57:00,83.3,36.8,29.09,SW,224,3.1,27.1,19,1.81,,,0.00,VWS V13.01,2013-06-13 06:57:00,
2013-06-13 03:02:00,83.1,36.6,29.09,SW,227,7.6,27.1,19,1.81,,,0.00,VWS V13.01,2013-06-13 07:02:00,
2013-06-13 03:07:00,82.9,36.5,29.09,WNW,284,3.6,27.1,19,1.81,,,0.00,VWS V13.01,2013-06-13 07:07:00,
2013-06-13 03:12:00,82.9,36.5,29.09,NW,311,9.6,27.1,19,1.81,,,0.00,VWS V13.01,2013-06-13 07:12:00,
2013-06-13 03:17:00,82.9,36.5,29.09,WNW,288,5.4,27.1,19,1.81,,,0.00,VWS V13.01,2013-06-13 07:17:00,
2013-06-13 03:22:00,82.9,37.8,29.09,WNW,288,6.7,27.1,20,1.81,,,0.00,VWS V13.01,2013-06-13 07:22:00,
2013-06-13 03:27:00,82.9,37.8,29.09,WNW,301,8.7,27.1,20,1.81,,,0.00,VWS V13.01,2013-06-13 07:27:00,
2013-06-13 03:32:00,82.9,37.8,29.09,SW,216,6.3,27.1,20,1.81,,,0.00,VWS V13.01,2013-06-13 07:32:00,
2013-06-13 03:37:00,82.9,37.8,29.09,WSW,247,2.7,27.1,20,1.81,,,0.00,VWS V13.01,2013-06-13 07:37:00,
2013-06-13 03:42:00,82.8,37.6,29.06,NW,324,3.1,27.1,20,1.81,,,0.00,VWS V13.01,2013-06-13 07:42:00,
2013-06-13 03:47:00,82.8,37.6,29.06,West,275,8.1,27.1,20,1.81,,,0.00,VWS V13.01,2013-06-13 07:47:00,
2013-06-13 03:52:00,82.8,37.6,29.06,SW,231,11.0,27.1,20,1.81,,,0.00,VWS V13.01,2013-06-13 07:52:00,
2013-06-13 03:57:00,82.8,37.6,29.06,WSW,237,10.5,27.1,20,1.81,,,0.00,VWS V13.01,2013-06-13 07:57:00,
2013-06-13 04:02:00,82.8,37.6,29.06,WSW,244,11.9,27.1,20,1.81,,,0.00,VWS V13.01,2013-06-13 08:02:00,
2013-06-13 04:07:00,82.8,37.6,29.06,WSW,238,7.6,27.1,20,1.81,,,0.00,VWS V13.01,2013-06-13 08:07:00,
2013-06-13 04:12:00,82.8,37.6,29.06,WSW,258,10.1,27.1,20,1.81,,,0.00,VWS V13.01,2013-06-13 08:12:00,
2013-06-13 04:17:00,82.6,38.7,29.06,WNW,286,3.6,27.1,21,1.81,,,0.00,VWS V13.01,2013-06-13 08:17:00,
2013-06-13 04:22:00,82.6,38.7,29.06,WSW,244,12.3,27.1,21,1.81,,,0.00,VWS V13.01,2013-06-13 08:22:00,
2013-06-13 04:27:00,82.4,38.6,29.06,WSW,243,13.2,27.1,21,1.81,,,0.00,VWS V13.01,2013-06-13 08:27:00,
2013-06-13 04:32:00,82.6,38.7,29.06,West,264,3.1,27.1,21,1.81,,,0.00,VWS V13.01,2013-06-13 08:32:00,
2013-06-13 04:37:00,82.6,38.7,29.06,NNW,334,4.0,27.1,21,1.81,,,0.00,VWS V13.01,2013-06-13 08:37:00,
2013-06-13 04:42:00,82.4,38.6,29.03,SW,230,3.1,27.1,21,1.81,,,0.00,VWS V13.01,2013-06-13 08:42:00,
2013-06-13 04:47:00,82.4,38.6,29.03,WSW,245,12.8,27.1,21,1.81,,,0.00,VWS V13.01,2013-06-13 08:47:00,
2013-06-13 04:52:00,82.4,38.6,29.03,WSW,240,4.0,27.1,21,1.81,,,0.00,VWS V13.01,2013-06-13 08:52:00,
2013-06-13 04:57:00,82.2,39.6,29.03,West,279,5.8,27.1,22,1.81,,,0.00,VWS V13.01,2013-06-13 08:57:00,
2013-06-13 05:02:00,82.2,39.6,29.03,NNW,337,5.8,27.1,22,1.81,,,0.00,VWS V13.01,2013-06-13 09:02:00,
2013-06-13 05:07:00,82.2,39.6,29.03,WSW,249,6.3,27.1,22,1.81,,,0.00,VWS V13.01,2013-06-13 09:07:00,
2013-06-13 05:12:00,82.2,39.6,29.03,WNW,300,5.4,27.1,22,1.81,,,0.00,VWS V13.01,2013-06-13 09:12:00,
2013-06-13 05:17:00,82.2,39.6,29.03,SW,221,15.4,27.1,22,1.81,,,0.00,VWS V13.01,2013-06-13 09:17:00,
2013-06-13 05:22:00,82.2,39.6,29.03,WNW,291,8.3,27.1,22,1.81,,,0.00,VWS V13.01,2013-06-13 09:22:00,
2013-06-13 05:27:00,82.0,39.5,29.03,West,262,6.3,27.1,22,1.81,,,0.00,VWS V13.01,2013-06-13 09:27:00,
2013-06-13 05:32:00,81.9,39.3,29.03,WNW,282,5.4,27.1,22,1.81,,,0.00,VWS V13.01,2013-06-13 09:32:00,
2013-06-13 05:37:00,82.0,39.5,29.03,West,268,4.0,27.1,22,1.81,,,0.00,VWS V13.01,2013-06-13 09:37:00,
2013-06-13 05:42:00,81.9,39.3,29.03,West,260,8.3,27.1,22,1.81,,,0.00,VWS V13.01,2013-06-13 09:42:00,
2013-06-13 05:47:00,81.9,39.3,29.03,West,263,5.4,27.1,22,1.81,,,0.00,VWS V13.01,2013-06-13 09:47:00,
2013-06-13 05:52:00,81.7,39.2,29.03,WSW,241,6.7,27.1,22,1.81,,,0.00,VWS V13.01,2013-06-13 09:52:00,
2013-06-13 05:57:00,81.7,39.2,29.03,SW,233,8.3,27.1,22,1.81,,,0.00,VWS V13.01,2013-06-13 09:57:00,
2013-06-13 06:02:00,81.5,39.0,29.03,WNW,300,4.0,27.1,22,1.81,,,0.00,VWS V13.01,2013-06-13 10:02:00,
2013-06-13 06:07:00,81.5,39.0,29.03,WNW,293,4.9,27.1,22,1.81,,,0.00,VWS V13.01,2013-06-13 10:07:00,
2013-06-13 06:12:00,81.5,40.2,29.00,WSW,244,11.0,27.1,23,1.81,,,0.00,VWS V13.01,2013-06-13 10:12:00,
2013-06-13 06:17:00,81.5,39.0,29.00,WSW,237,4.9,27.1,22,1.81,,,0.00,VWS V13.01,2013-06-13 10:17:00,
2013-06-13 06:22:00,81.5,40.2,29.00,SW,235,5.8,27.1,23,1.81,,,0.00,VWS V13.01,2013-06-13 10:22:00,
2013-06-13 06:27:00,81.5,40.2,29.00,West,274,5.4,27.1,23,1.81,,,0.00,VWS V13.01,2013-06-13 10:27:00,
2013-06-13 06:32:00,81.5,40.2,29.03,SW,224,5.8,27.1,23,1.81,,,0.00,VWS V13.01,2013-06-13 10:32:00,
2013-06-13 06:37:00,81.3,40.0,29.03,NNW,338,4.5,27.1,23,1.81,,,0.00,VWS V13.01,2013-06-13 10:37:00,
2013-06-13 06:42:00,81.1,39.9,29.03,SSW,196,3.6,27.1,23,1.81,,,0.00,VWS V13.01,2013-06-13 10:42:00,
2013-06-13 06:47:00,81.1,41.0,29.03,SW,235,10.1,27.1,24,1.81,,,0.00,VWS V13.01,2013-06-13 10:47:00,
2013-06-13 06:52:00,81.1,41.0,29.03,WNW,297,10.5,27.1,24,1.81,,,0.00,VWS V13.01,2013-06-13 10:52:00,
2013-06-13 06:57:00,81.1,41.0,29.03,West,271,5.4,27.1,24,1.81,,,0.00,VWS V13.01,2013-06-13 10:57:00,
2013-06-13 07:02:00,81.0,40.8,29.03,WNW,289,4.0,27.1,24,1.81,,,0.00,VWS V13.01,2013-06-13 11:02:00,
2013-06-13 07:07:00,81.0,41.9,29.03,West,262,8.1,27.1,25,1.81,,,0.00,VWS V13.01,2013-06-13 11:07:00,
2013-06-13 07:12:00,81.0,41.9,29.03,West,268,10.1,27.1,25,1.81,,,0.00,VWS V13.01,2013-06-13 11:12:00,
2013-06-13 07:17:00,81.0,41.9,29.03,NNW,332,5.8,27.1,25,1.81,,,0.00,VWS V13.01,2013-06-13 11:17:00,
2013-06-13 07:22:00,80.8,41.7,29.03,WSW,238,8.1,27.1,25,1.81,,,0.00,VWS V13.01,2013-06-13 11:22:00,
2013-06-13 07:27:00,80.8,42.7,29.03,SW,227,5.4,27.1,26,1.81,,,0.00,VWS V13.01,2013-06-13 11:27:00,
2013-06-13 07:32:00,80.6,43.6,29.03,West,277,3.6,27.1,27,1.81,,,0.00,VWS V13.01,2013-06-13 11:32:00,
2013-06-13 07:37:00,80.6,43.6,29.03,SW,229,4.0,27.1,27,1.81,,,0.00,VWS V13.01,2013-06-13 11:37:00,
2013-06-13 07:42:00,80.6,44.5,29.03,SW,236,2.7,27.1,28,1.81,,,0.00,VWS V13.01,2013-06-13 11:42:00,
2013-06-13 07:47:00,80.6,45.4,29.03,NW,307,2.7,27.1,29,1.81,,,0.00,VWS V13.01,2013-06-13 11:47:00,
2013-06-13 07:52:00,80.4,46.2,29.03,WSW,253,4.0,27.1,30,1.81,,,0.00,VWS V13.01,2013-06-13 11:52:00,
2013-06-13 07:57:00,80.4,46.2,29.03,WSW,239,5.4,27.1,30,1.81,,,0.00,VWS V13.01,2013-06-13 11:57:00,
2013-06-13 08:02:00,80.6,45.4,29.03,WNW,296,8.3,27.1,29,1.81,,,0.00,VWS V13.01,2013-06-13 12:02:00,
2013-06-13 08:07:00,80.6,45.4,29.03,NNW,335,3.6,27.1,29,1.81,,,0.00,VWS V13.01,2013-06-13 12:07:00,
2013-06-13 08:12:00,80.6,45.4,29.00,West,270,10.1,27.1,29,1.81,,,0.00,VWS V13.01,2013-06-13 12:12:00,
2013-06-13 08:17:00,80.4,46.2,29.00,NW,309,3.1,27.1,30,1.81,,,0.00,VWS V13.01,2013-06-13 12:17:00,
2013-06-13 08:22:00,80.4,46.2,29.00,WNW,292,3.6,27.1,30,1.81,,,0.00,VWS V13.01,2013-06-13 12:22:00,
2013-06-13 08:27:00,80.4,46.2,29.00,SW,235,12.8,27.1,30,1.81,,,0.00,VWS V13.01,2013-06-13 12:27:00,
2013-06-13 08:32:00,80.4,46.2,29.00,NNW,339,10.1,27.1,30,1.81,,,0.00,VWS V13.01,2013-06-13 12:32:00,
2013-06-13 08:37:00,80.6,46.3,29.00,WSW,255,12.3,27.1,30,1.81,,,0.00,VWS V13.01,2013-06-13 12:37:00,
2013-06-13 08:42:00,80.6,46.3,29.00,West,268,8.3,27.1,30,1.81,,,0.00,VWS V13.01,2013-06-13 12:42:00,
2013-06-13 08:47:00,80.6,46.3,29.00,SW,227,7.6,27.1,30,1.81,,,0.00,VWS V13.01,2013-06-13 12:47:00,
2013-06-13 08:52:00,80.4,46.2,29.00,WNW,286,3.6,27.1,30,1.81,,,0.00,VWS V13.01,2013-06-13 12:52:00,
2013-06-13 08:57:00,80.4,46.2,29.00,NW,308,7.2,27.1,30,1.81,,,0.00,VWS V13.01,2013-06-13 12:57:00,
2013-06-13 09:02:00,80.4,47.0,29.00,SW,234,7.6,27.1,31,1.81,,,0.00,VWS V13.01,2013-06-13 13:02:00,
2013-06-13 09:11:00,80.4,47.0,29.00,SW,226,3.6,27.1,31,1.81,,,0.00,VWS V13.01,2013-06-13 13:11:00,
2013-06-13 09:16:00,80.4,47.0,29.00,SW,223,5.4,27.1,31,1.81,,,0.00,VWS V13.01,2013-06-13 13:16:00,
2013-06-13 09:21:00,80.6,46.3,29.00,SW,232,5.8,27.1,30,1.81,,,0.00,VWS V13.01,2013-06-13 13:21:00,
2013-06-13 09:26:00,80.6,46.3,29.00,WNW,296,4.9,27.1,30,1.81,,,0.00,VWS V13.01,2013-06-13 13:26:00,
2013-06-13 09:31:00,80.8,46.5,28.97,WNW,294,6.3,27.1,30,1.81,,,0.00,VWS V13.01,2013-06-13 13:31:00,
2013-06-13 09:36:00,81.0,46.6,28.97,WSW,256,5.8,27.1,30,1.81,,,0.00,VWS V13.01,2013-06-13 13:36:00,
2013-06-13 09:41:00,81.0,46.6,28.97,WSW,242,12.8,27.1,30,1.81,,,0.00,VWS V13.01,2013-06-13 13:41:00,
2013-06-13 09:46:00,80.8,46.5,29.00,WSW,253,5.8,27.1,30,1.81,,,0.00,VWS V13.01,2013-06-13 13:46:00,
2013-06-13 09:51:00,80.8,46.5,29.00,West,281,2.7,27.1,30,1.81,,,0.00,VWS V13.01,2013-06-13 13:51:00,
2013-06-13 09:56:00,80.8,46.5,29.00,WNW,299,4.0,27.1,30,1.81,,,0.00,VWS V13.01,2013-06-13 13:56:00,
2013-06-13 10:01:00,81.0,46.6,29.00,WNW,283,6.3,27.1,30,1.81,,,0.00,VWS V13.01,2013-06-13 14:01:00,
2013-06-13 10:06:00,80.8,46.5,29.00,West,275,8.1,27.1,30,1.81,,,0.00,VWS V13.01,2013-06-13 14:06:00,
2013-06-13 10:11:00,80.6,46.3,29.00,WNW,289,6.3,27.1,30,1.81,,,0.00,VWS V13.01,2013-06-13 14:11:00,
2013-06-13 10:16:00,80.4,47.0,29.00,West,270,7.6,27.1,31,1.81,,,0.00,VWS V13.01,2013-06-13 14:16:00,
2013-06-13 10:21:00,80.2,46.9,29.00,WSW,243,4.9,27.1,31,1.81,,,0.00,VWS V13.01,2013-06-13 14:21:00,
2013-06-13 10:26:00,80.2,46.9,29.00,NW,309,4.0,27.1,31,1.81,,,0.00,VWS V13.01,2013-06-13 14:26:00,
2013-06-13 10:31:00,80.2,47.7,29.00,WNW,301,5.8,27.1,32,1.81,,,0.00,VWS V13.01,2013-06-13 14:31:00,
2013-06-13 10:36:00,80.2,47.7,29.00,WSW,253,7.2,27.1,32,1.81,,,0.00,VWS V13.01,2013-06-13 14:36:00,
2013-06-13 10:41:00,80.4,47.0,29.00,WSW,251,5.4,27.1,31,1.81,,,0.00,VWS V13.01,2013-06-13 14:41:00,
2013-06-13 10:46:00,80.4,47.0,29.00,WSW,250,9.6,27.1,31,1.81,,,0.00,VWS V13.01,2013-06-13 14:46:00,
2013-06-13 10:51:00,80.4,47.9,29.00,SW,222,2.7,27.1,32,1.81,,,0.00,VWS V13.01,2013-06-13 14:51:00,
2013-06-13 10:56:00,80.4,47.0,29.00,West,271,5.8,27.1,31,1.81,,,0.00,VWS V13.01,2013-06-13 14:56:00,
2013-06-13 11:01:00,80.6,47.2,28.97,WSW,238,4.0,27.1,31,1.81,,,0.00,VWS V13.01,2013-06-13 15:01:00,
2013-06-13 11:06:00,81.5,47.1,28.97,WSW,246,11.9,27.1,30,1.81,,,0.00,VWS V13.01,2013-06-13 15:06:00,
2013-06-13 11:11:00,81.9,46.5,28.97,WSW,241,5.4,27.1,29,1.81,,,0.00,VWS V13.01,2013-06-13 15:11:00,
2013-06-13 11:16:00,81.9,46.5,28.97,SW,234,7.6,27.1,29,1.81,,,0.00,VWS V13.01,2013-06-13 15:16:00,
2013-06-13 11:21:00,81.7,46.4,28.97,WNW,295,2.7,27.1,29,1.81,,,0.00,VWS V13.01,2013-06-13 15:21:00,
2013-06-13 11:26:00,80.8,48.2,28.97,West,274,6.3,27.1,32,1.81,,,0.00,VWS V13.01,2013-06-13 15:26:00,
2013-06-13 11:31:00,79.0,36.9,29.00,NW,306,5.4,27.1,22,1.93,,,0.12,VWS V13.01,2013-06-13 15:31:00,
2013-06-13 11:36:00,77.4,49.8,29.00,NNW,332,10.5,27.1,38,1.93,,,0.00,VWS V13.01,2013-06-13 15:36:00,
2013-06-13 11:41:00,74.1,44.0,29.00,NW,322,13.2,27.1,34,1.93,,,0.00,VWS V13.01,2013-06-13 15:41:00,
2013-06-13 11:46:00,71.2,47.6,29.00,WNW,301,10.1,27.1,43,1.97,,,0.04,VWS V13.01,2013-06-13 15:46:00,
2013-06-13 11:51:00,69.8,50.9,29.00,NW,314,8.3,27.1,51,2.05,,,0.12,VWS V13.01,2013-06-13 15:51:00,
2013-06-13 11:56:00,69.3,53.4,29.00,WNW,285,18.8,27.1,57,2.09,,,0.16,VWS V13.01,2013-06-13 15:56:00,
2013-06-13 12:01:00,69.1,54.2,29.00,WNW,292,5.4,27.1,59,2.13,,,0.20,VWS V13.01,2013-06-13 16:01:00,
2013-06-13 12:06:00,69.1,53.7,29.00,NNW,344,3.1,27.1,58,2.13,,,0.20,VWS V13.01,2013-06-13 16:06:00,
2013-06-13 12:11:00,69.1,53.7,29.03,WNW,293,2.7,27.1,58,2.13,,,0.20,VWS V13.01,2013-06-13 16:11:00,
2013-06-13 12:16:00,69.1,54.2,29.03,NW,316,3.1,27.1,59,2.13,,,0.20,VWS V13.01,2013-06-13 16:16:00,
2013-06-13 12:21:00,69.1,54.6,29.03,WNW,300,2.7,27.1,60,2.13,,,0.20,VWS V13.01,2013-06-13 16:21:00,
2013-06-13 12:26:00,69.1,55.1,29.03,NW,317,3.1,27.1,61,2.13,,,0.20,VWS V13.01,2013-06-13 16:26:00,
2013-06-13 12:31:00,69.3,55.2,29.06,NW,308,4.0,27.1,61,2.13,,,0.20,VWS V13.01,2013-06-13 16:31:00,
2013-06-13 12:36:00,69.3,55.7,29.06,NW,322,5.4,27.1,62,2.13,,,0.20,VWS V13.01,2013-06-13 16:36:00,
2013-06-13 12:41:00,69.4,55.9,29.06,NW,324,4.5,27.1,62,2.13,,,0.20,VWS V13.01,2013-06-13 16:41:00,
2013-06-13 12:46:00,69.6,56.0,29.06,NW,318,3.6,27.1,62,2.13,,,0.20,VWS V13.01,2013-06-13 16:46:00,
2013-06-13 12:51:00,69.6,56.0,29.06,NW,312,5.8,27.1,62,2.13,,,0.20,VWS V13.01,2013-06-13 16:51:00,
2013-06-13 12:56:00,69.8,55.8,29.03,WNW,289,2.2,27.1,61,2.13,,,0.20,VWS V13.01,2013-06-13 16:56:00,
2013-06-13 13:01:00,70.0,55.9,29.03,NW,315,4.0,27.1,61,2.13,,,0.20,VWS V13.01,2013-06-13 17:01:00,
2013-06-13 13:06:00,70.5,56.4,29.03,NNW,328,4.0,27.1,61,2.13,,,0.20,VWS V13.01,2013-06-13 17:06:00,
2013-06-13 13:11:00,70.9,56.8,29.03,NNW,341,3.1,27.1,61,2.13,,,0.20,VWS V13.01,2013-06-13 17:11:00,
2013-06-13 13:16:00,71.1,56.5,29.03,NW,314,5.4,27.1,60,2.13,,,0.20,VWS V13.01,2013-06-13 17:16:00,
2013-06-13 13:21:00,71.4,56.4,29.03,NNW,328,4.0,27.1,59,2.13,,,0.20,VWS V13.01,2013-06-13 17:21:00,
2013-06-13 13:26:00,72.0,54.4,29.03,NW,315,3.6,27.1,54,2.13,,,0.20,VWS V13.01,2013-06-13 17:26:00,
2013-06-13 13:31:00,72.5,53.4,29.06,WNW,293,4.9,27.1,51,2.13,,,0.20,VWS V13.01,2013-06-13 17:31:00,
2013-06-13 13:36:00,73.0,52.8,29.06,NNW,335,5.8,27.1,49,2.13,,,0.20,VWS V13.01,2013-06-13 17:36:00,
2013-06-13 13:41:00,73.6,50.3,29.06,NW,322,4.0,27.1,44,2.13,,,0.20,VWS V13.01,2013-06-13 17:41:00,
2013-06-13 13:46:00,74.3,49.1,29.06,North,357,6.3,27.1,41,2.13,,,0.20,VWS V13.01,2013-06-13 17:46:00,
2013-06-13 13:51:00,75.2,49.9,29.06,WNW,284,3.6,27.1,41,2.13,,,0.20,VWS V13.01,2013-06-13 17:51:00,
2013-06-13 13:56:00,75.7,45.4,29.06,WNW,286,7.6,27.1,34,2.13,,,0.20,VWS V13.01,2013-06-13 17:56:00,
2013-06-13 14:02:00,75.7,45.4,29.06,NW,320,5.8,27.1,34,2.13,,,0.20,VWS V13.01,2013-06-13 18:02:00,
2013-06-13 14:07:00,75.7,46.2,29.06,WNW,287,3.1,27.1,35,2.13,,,0.20,VWS V13.01,2013-06-13 18:07:00,
2013-06-13 14:12:00,75.9,44.8,29.06,North,357,7.6,27.1,33,2.13,,,0.20,VWS V13.01,2013-06-13 18:12:00,
2013-06-13 14:17:00,75.7,44.6,29.06,NW,310,4.0,27.1,33,2.13,,,0.20,VWS V13.01,2013-06-13 18:17:00,
2013-06-13 14:22:00,75.9,45.6,29.06,NW,311,4.0,27.1,34,2.13,,,0.20,VWS V13.01,2013-06-13 18:22:00,
2013-06-13 14:27:00,76.1,44.1,29.06,WNW,299,3.1,27.1,32,2.13,,,0.20,VWS V13.01,2013-06-13 18:27:00,
2013-06-13 14:32:00,76.5,44.4,29.06,West,274,3.6,27.1,32,2.13,,,0.20,VWS V13.01,2013-06-13 18:32:00,
2013-06-13 14:37:00,76.8,41.3,29.06,NE,34,3.1,27.1,28,2.13,,,0.20,VWS V13.01,2013-06-13 18:37:00,
2013-06-13 14:42:00,76.8,37.3,29.06,NNW,341,13.2,27.1,24,2.13,,,0.20,VWS V13.01,2013-06-13 18:42:00,
2013-06-13 14:47:00,77.0,36.4,29.06,WNW,297,14.5,27.1,23,2.13,,,0.20,VWS V13.01,2013-06-13 18:47:00,
2013-06-13 14:52:00,77.2,35.4,29.06,North,357,5.8,27.1,22,2.13,,,0.20,VWS V13.01,2013-06-13 18:52:00,
2013-06-13 14:57:00,77.5,34.6,29.06,North,353,8.7,27.1,21,2.13,,,0.20,VWS V13.01,2013-06-13 18:57:00,
2013-06-13 15:02:00,78.1,35.0,29.06,NW,315,4.5,27.1,21,2.13,,,0.20,VWS V13.01,2013-06-13 19:02:00,
2013-06-13 15:07:00,78.6,34.2,29.06,NNW,339,10.1,27.1,20,2.13,,,0.20,VWS V13.01,2013-06-13 19:07:00,
2013-06-13 15:12:00,78.6,35.5,29.06,West,273,13.2,27.1,21,2.13,,,0.20,VWS V13.01,2013-06-13 19:12:00,
2013-06-13 15:17:00,79.0,35.8,29.06,NNW,327,6.3,27.1,21,2.13,,,0.20,VWS V13.01,2013-06-13 19:17:00,
2013-06-13 15:22:00,79.5,36.2,29.06,NNW,327,5.4,27.1,21,2.13,,,0.20,VWS V13.01,2013-06-13 19:22:00,
2013-06-13 15:27:00,79.9,35.3,29.06,NW,316,3.6,27.1,20,2.13,,,0.20,VWS V13.01,2013-06-13 19:27:00,
2013-06-13 15:32:00,79.7,35.1,29.06,NW,326,5.4,27.1,20,2.13,,,0.20,VWS V13.01,2013-06-13 19:32:00,
2013-06-13 15:37:00,79.0,34.5,29.06,NNW,331,12.3,27.1,20,2.13,,,0.20,VWS V13.01,2013-06-13 19:37:00,
2013-06-13 15:42:00,78.3,35.2,29.06,NW,315,9.6,27.1,21,2.13,,,0.20,VWS V13.01,2013-06-13 19:42:00,
2013-06-13 15:47:00,78.3,36.3,29.06,NNW,343,5.8,27.1,22,2.13,,,0.20,VWS V13.01,2013-06-13 19:47:00,
2013-06-13 15:52:00,77.5,34.6,29.06,North,353,6.3,27.1,21,2.13,,,0.20,VWS V13.01,2013-06-13 19:52:00,
2013-06-13 15:57:00,76.6,36.1,29.06,NW,325,8.3,27.1,23,2.13,,,0.20,VWS V13.01,2013-06-13 19:57:00,
2013-06-13 16:02:00,76.3,36.9,29.06,NNW,339,5.4,27.1,24,2.13,,,0.20,VWS V13.01,2013-06-13 20:02:00,
2013-06-13 16:07:00,76.1,38.8,29.06,NNE,15,3.6,27.1,26,2.13,,,0.20,VWS V13.01,2013-06-13 20:07:00,
2013-06-13 16:12:00,76.5,39.1,29.06,NNW,336,4.9,27.1,26,2.13,,,0.20,VWS V13.01,2013-06-13 20:12:00,
2013-06-13 16:17:00,76.8,38.4,29.06,WNW,288,8.7,27.1,25,2.13,,,0.20,VWS V13.01,2013-06-13 20:17:00,
2013-06-13 16:22:00,76.8,38.4,29.06,North,357,6.3,27.1,25,2.13,,,0.20,VWS V13.01,2013-06-13 20:22:00,
2013-06-13 16:27:00,77.0,35.3,29.09,WSW,238,8.1,27.1,22,2.13,,,0.20,VWS V13.01,2013-06-13 20:27:00,
2013-06-13 16:32:00,77.4,35.6,29.09,North,0,6.3,27.1,22,2.13,,,0.20,VWS V13.01,2013-06-13 20:32:00,
2013-06-13 16:37:00,77.5,35.7,29.09,NNW,327,9.6,27.1,22,2.13,,,0.20,VWS V13.01,2013-06-13 20:37:00,
2013-06-13 16:42:00,77.7,34.7,29.06,WNW,287,3.1,27.1,21,2.13,,,0.20,VWS V13.01,2013-06-13 20:42:00,
2013-06-13 16:47:00,78.3,33.9,29.06,NNW,337,11.0,27.1,20,2.13,,,0.20,VWS V13.01,2013-06-13 20:47:00,
2013-06-13 16:52:00,78.8,34.4,29.06,NW,315,5.8,27.1,20,2.13,,,0.20,VWS V13.01,2013-06-13 20:52:00,
2013-06-13 16:57:00,78.8,34.4,29.09,NW,309,8.3,27.1,20,2.13,,,0.20,VWS V13.01,2013-06-13 20:57:00,
2013-06-13 17:03:00,78.4,31.5,29.09,NW,311,7.2,27.1,18,2.13,,,0.20,VWS V13.01,2013-06-13 21:03:00,
2013-06-13 17:08:00,78.3,33.9,29.09,WNW,287,7.6,27.1,20,2.13,,,0.20,VWS V13.01,2013-06-13 21:08:00,
2013-06-13 17:13:00,78.8,34.4,29.09,NW,325,8.1,27.1,20,2.13,,,0.20,VWS V13.01,2013-06-13 21:13:00,
2013-06-13 17:18:00,78.4,31.5,29.09,NW,321,5.4,27.1,18,2.13,,,0.20,VWS V13.01,2013-06-13 21:18:00,
2013-06-13 17:23:00,77.7,33.5,29.09,West,277,10.1,27.1,20,2.13,,,0.20,VWS V13.01,2013-06-13 21:23:00,
2013-06-13 17:28:00,77.2,34.3,29.09,NW,311,13.6,27.1,21,2.13,,,0.20,VWS V13.01,2013-06-13 21:28:00,
2013-06-13 17:33:00,74.7,33.3,29.09,NNW,330,8.3,27.1,22,2.13,,,0.20,VWS V13.01,2013-06-13 21:33:00,
2013-06-13 17:38:00,73.8,34.8,29.09,West,272,5.8,27.1,24,2.13,,,0.20,VWS V13.01,2013-06-13 21:38:00,
2013-06-13 17:43:00,72.9,37.0,29.09,NNE,20,4.9,27.1,27,2.13,,,0.20,VWS V13.01,2013-06-13 21:43:00,
2013-06-13 17:48:00,72.5,36.7,29.09,NNW,341,5.8,27.1,27,2.13,,,0.20,VWS V13.01,2013-06-13 21:48:00,
2013-06-13 17:54:00,72.5,38.5,29.09,SW,232,3.1,27.1,29,2.13,,,0.20,VWS V13.01,2013-06-13 21:54:00,
2013-06-13 17:59:00,72.5,38.5,29.09,NNW,345,3.1,27.1,29,2.13,,,0.20,VWS V13.01,2013-06-13 21:59:00,
2013-06-13 18:04:00,72.7,38.6,29.09,North,357,4.0,27.1,29,2.13,,,0.20,VWS V13.01,2013-06-13 22:04:00,
2013-06-13 18:09:00,73.0,38.9,29.09,NNW,342,3.6,27.1,29,2.13,,,0.20,VWS V13.01,2013-06-13 22:09:00,
2013-06-13 18:14:00,73.4,37.4,29.12,NW,307,2.2,27.1,27,2.13,,,0.20,VWS V13.01,2013-06-13 22:14:00,
2013-06-13 18:19:00,74.3,39.1,29.12,NW,319,3.1,27.1,28,2.13,,,0.20,VWS V13.01,2013-06-13 22:19:00,
2013-06-13 18:24:00,75.0,35.8,29.12,North,353,3.1,27.1,24,2.13,,,0.20,VWS V13.01,2013-06-13 22:24:00,
2013-06-13 18:29:00,75.2,36.0,29.12,WNW,294,10.1,27.1,24,2.13,,,0.20,VWS V13.01,2013-06-13 22:29:00,
2013-06-13 18:34:00,75.2,36.0,29.12,NNW,330,4.9,27.1,24,2.13,,,0.20,VWS V13.01,2013-06-13 22:34:00,
2013-06-13 18:39:00,75.0,36.8,29.12,NW,304,3.6,27.1,25,2.13,,,0.20,VWS V13.01,2013-06-13 22:39:00,
2013-06-13 18:44:00,74.8,36.7,29.12,NNW,332,5.8,27.1,25,2.13,,,0.20,VWS V13.01,2013-06-13 22:44:00,
2013-06-13 18:49:00,74.7,37.5,29.12,NNW,333,5.4,27.1,26,2.13,,,0.20,VWS V13.01,2013-06-13 22:49:00,
2013-06-13 18:54:00,74.7,36.5,29.12,NNW,334,2.7,27.1,25,2.13,,,0.20,VWS V13.01,2013-06-13 22:54:00,
2013-06-13 18:59:00,74.7,35.5,29.12,NW,317,8.3,27.1,24,2.13,,,0.20,VWS V13.01,2013-06-13 22:59:00,
2013-06-13 19:04:00,74.5,35.4,29.12,North,349,5.8,27.1,24,2.13,,,0.20,VWS V13.01,2013-06-13 23:04:00,
2013-06-13 19:09:00,74.7,35.5,29.12,NW,317,3.6,27.1,24,2.13,,,0.20,VWS V13.01,2013-06-13 23:09:00,
2013-06-13 19:14:00,75.0,34.7,29.12,WNW,303,2.2,27.1,23,2.13,,,0.20,VWS V13.01,2013-06-13 23:14:00,
2013-06-13 19:19:00,75.4,32.8,29.12,North,9,3.6,27.1,21,2.13,,,0.20,VWS V13.01,2013-06-13 23:19:00,
2013-06-13 19:24:00,75.7,33.1,29.12,North,353,6.7,27.1,21,2.13,,,0.20,VWS V13.01,2013-06-13 23:24:00,
2013-06-13 19:29:00,75.9,33.2,29.12,North,0,8.1,27.1,21,2.13,,,0.20,VWS V13.01,2013-06-13 23:29:00,
2013-06-13 19:34:00,75.7,31.9,29.12,ENE,68,5.4,27.1,20,2.13,,,0.20,VWS V13.01,2013-06-13 23:34:00,
2013-06-13 19:39:00,75.7,29.3,29.12,North,8,5.4,27.1,18,2.13,,,0.20,VWS V13.01,2013-06-13 23:39:00,
2013-06-13 19:44:00,75.7,24.9,29.12,West,277,2.7,27.1,15,2.13,,,0.20,VWS V13.01,2013-06-13 23:44:00,
2013-06-13 19:49:00,75.6,29.1,29.12,WNW,289,4.0,27.1,18,2.13,,,0.20,VWS V13.01,2013-06-13 23:49:00,
2013-06-13 19:54:00,75.7,24.9,29.12,NW,318,4.0,27.1,15,2.13,,,0.20,VWS V13.01,2013-06-13 23:54:00,
2013-06-13 19:59:00,75.6,24.7,29.12,NW,322,5.8,27.1,15,2.13,,,0.20,VWS V13.01,2013-06-13 23:59:00,
2013-06-13 20:04:00,75.6,24.7,29.12,WSW,245,6.3,27.1,15,2.13,,,0.20,VWS V13.01,2013-06-14 00:04:00,
2013-06-13 20:09:00,75.4,24.6,29.12,NW,318,2.7,27.1,15,2.13,,,0.20,VWS V13.01,2013-06-14 00:09:00,
2013-06-13 20:14:00,75.6,24.7,29.12,NW,306,2.7,27.1,15,2.13,,,0.20,VWS V13.01,2013-06-14 00:14:00,
2013-06-13 20:19:00,75.4,29.0,29.12,North,1,0.0,27.1,18,2.13,,,0.20,VWS V13.01,2013-06-14 00:19:00,
2013-06-13 20:24:00,75.2,24.4,29.12,NW,305,2.7,27.1,15,2.13,,,0.20,VWS V13.01,2013-06-14 00:24:00,
2013-06-13 20:29:00,74.7,25.5,29.15,NNE,16,0.0,27.1,16,2.13,,,0.20,VWS V13.01,2013-06-14 00:29:00,
2013-06-13 20:34:00,74.1,27.9,29.15,NE,50,0.0,27.1,18,2.13,,,0.20,VWS V13.01,2013-06-14 00:34:00,
2013-06-13 20:39:00,73.8,31.4,29.15,NNW,345,2.2,27.1,21,2.13,,,0.20,VWS V13.01,2013-06-14 00:39:00,
2013-06-13 20:44:00,73.0,32.0,29.15,NNW,345,0.0,27.1,22,2.13,,,0.20,VWS V13.01,2013-06-14 00:44:00,
2013-06-13 20:49:00,72.3,31.4,29.15,NNW,345,0.0,27.1,22,2.13,,,0.20,VWS V13.01,2013-06-14 00:49:00,
2013-06-13 20:54:00,71.6,30.8,29.15,NNW,345,0.0,27.1,22,2.13,,,0.20,VWS V13.01,2013-06-14 00:54:00,
2013-06-13 20:59:00,71.1,31.4,29.15,NNW,345,0.0,27.1,23,2.13,,,0.20,VWS V13.01,2013-06-14 00:59:00,
2013-06-13 21:04:00,70.5,32.0,29.15,NNW,348,0.0,27.1,24,2.13,,,0.20,VWS V13.01,2013-06-14 01:04:00,
2013-06-13 21:09:00,69.8,32.4,29.15,North,349,0.0,27.1,25,2.13,,,0.20,VWS V13.01,2013-06-14 01:09:00,
2013-06-13 21:14:00,69.3,33.9,29.15,North,349,0.0,27.1,27,2.13,,,0.20,VWS V13.01,2013-06-14 01:14:00,
2013-06-13 21:19:00,68.9,35.4,29.15,North,349,0.0,27.1,29,2.13,,,0.20,VWS V13.01,2013-06-14 01:19:00,
2013-06-13 21:24:00,68.9,36.2,29.15,North,349,0.0,27.1,30,2.13,,,0.20,VWS V13.01,2013-06-14 01:24:00,
2013-06-13 21:29:00,68.5,35.9,29.15,North,349,0.0,27.1,30,2.13,,,0.20,VWS V13.01,2013-06-14 01:29:00,
2013-06-13 21:34:00,68.4,36.6,29.15,North,349,0.0,27.1,31,2.13,,,0.20,VWS V13.01,2013-06-14 01:34:00,
2013-06-13 21:39:00,68.0,37.1,29.15,North,349,0.0,27.1,32,2.13,,,0.20,VWS V13.01,2013-06-14 01:39:00,
2013-06-13 21:44:00,67.8,37.7,29.15,North,349,0.0,27.1,33,2.13,,,0.20,VWS V13.01,2013-06-14 01:44:00,
2013-06-13 21:49:00,67.5,38.1,29.15,North,349,0.0,27.1,34,2.13,,,0.20,VWS V13.01,2013-06-14 01:49:00,
2013-06-13 21:54:00,67.1,38.6,29.15,North,349,0.0,27.1,35,2.13,,,0.20,VWS V13.01,2013-06-14 01:54:00,
2013-06-13 21:59:00,66.7,38.2,29.15,North,349,0.0,27.1,35,2.13,,,0.20,VWS V13.01,2013-06-14 01:59:00,
2013-06-13 22:04:00,66.6,38.8,29.15,North,349,0.0,27.1,36,2.13,,,0.20,VWS V13.01,2013-06-14 02:04:00,
2013-06-13 22:09:00,66.2,38.5,29.15,North,349,0.0,27.1,36,2.13,,,0.20,VWS V13.01,2013-06-14 02:09:00,
2013-06-13 22:14:00,66.0,39.0,29.18,North,350,0.0,27.1,37,2.13,,,0.20,VWS V13.01,2013-06-14 02:14:00,
2013-06-13 22:19:00,65.8,40.2,29.18,North,350,0.0,27.1,39,2.13,,,0.20,VWS V13.01,2013-06-14 02:19:00,
2013-06-13 22:24:00,65.7,40.0,29.18,North,350,0.0,27.1,39,2.13,,,0.20,VWS V13.01,2013-06-14 02:24:00,
2013-06-13 22:29:00,65.5,40.5,29.18,North,350,0.0,27.1,40,2.13,,,0.20,VWS V13.01,2013-06-14 02:29:00,
2013-06-13 22:34:00,65.3,41.6,29.18,North,350,0.0,27.1,42,2.13,,,0.20,VWS V13.01,2013-06-14 02:34:00,
2013-06-13 22:39:00,65.1,41.5,29.18,North,350,0.0,27.1,42,2.13,,,0.20,VWS V13.01,2013-06-14 02:39:00,
2013-06-13 22:44:00,64.8,41.2,29.18,North,350,0.0,27.1,42,2.13,,,0.20,VWS V13.01,2013-06-14 02:44:00,
2013-06-13 22:50:00,64.8,41.8,29.18,North,350,0.0,27.1,43,2.13,,,0.20,VWS V13.01,2013-06-14 02:50:00,
2013-06-13 22:55:00,64.4,41.4,29.18,North,350,0.0,27.1,43,2.13,,,0.20,VWS V13.01,2013-06-14 02:55:00,
2013-06-13 23:00:00,64.2,41.9,29.18,North,350,0.0,27.1,44,2.13,,,0.20,VWS V13.01,2013-06-14 03:00:00,
2013-06-13 23:05:00,64.0,41.7,29.18,North,350,0.0,27.1,44,2.13,,,0.20,VWS V13.01,2013-06-14 03:05:00,
2013-06-13 23:10:00,63.9,41.5,29.18,North,350,0.0,27.1,44,2.13,,,0.20,VWS V13.01,2013-06-14 03:10:00,
2013-06-13 23:15:00,63.9,42.1,29.21,North,350,0.0,27.1,45,2.13,,,0.20,VWS V13.01,2013-06-14 03:15:00,
2013-06-13 23:20:00,63.7,42.0,29.21,North,350,0.0,27.1,45,2.13,,,0.20,VWS V13.01,2013-06-14 03:20:00,
2013-06-13 23:25:00,63.5,42.4,29.21,North,350,0.0,27.1,46,2.13,,,0.20,VWS V13.01,2013-06-14 03:25:00,
2013-06-13 23:30:00,63.3,42.2,29.21,North,350,0.0,27.1,46,2.13,,,0.20,VWS V13.01,2013-06-14 03:30:00,
2013-06-13 23:35:00,63.1,42.6,29.21,North,350,0.0,27.1,47,2.13,,,0.20,VWS V13.01,2013-06-14 03:35:00,
2013-06-13 23:40:00,63.0,42.4,29.21,North,350,0.0,27.1,47,2.13,,,0.20,VWS V13.01,2013-06-14 03:40:00,
2013-06-13 23:45:00,63.0,42.4,29.21,North,350,0.0,27.1,47,2.13,,,0.20,VWS V13.01,2013-06-14 03:45:00,
2013-06-13 23:50:00,62.8,42.8,29.21,North,350,0.0,27.1,48,2.13,,,0.20,VWS V13.01,2013-06-14 03:50:00,
2013-06-13 23:55:00,62.8,42.8,29.21,North,350,0.0,27.1,48,2.13,,,0.20,VWS V13.01,2013-06-14 03:55:00,